| time (UTC) | temp C | wind direction | speed KPH | gust KPH | rain 1hr cm | rain 24hr cm | rain mn cm | humidity % | barometer mb |
| 20260504100504 | 12 | 10 | 0.0 | 1.6 | 0.00 | 0.00 | 0.00 | 94 | 1016.8 |
| 20260504082000 | 13 | 5 | 0.0 | 0.0 | 0.00 | 0.00 | 0.00 | 92 | 1017.0 |
| 20260504080459 | 13 | 5 | 0.0 | 0.0 | 0.00 | 0.00 | 0.00 | 92 | 1016.9 |
| 20260504050500 | 16 | 55 | 0.0 | 3.2 | 0.00 | 0.00 | 0.00 | 86 | 1018.1 |
| 20260504050004 | 16 | 55 | 0.0 | 3.2 | 0.00 | 0.00 | 0.00 | 85 | 1018.1 |
| 20260504045457 | 16 | 55 | 0.0 | 0.0 | 0.00 | 0.00 | 0.00 | 85 | 1018.1 |
| 20260504044956 | 16 | 55 | 0.0 | 0.0 | 0.00 | 0.00 | 0.00 | 85 | 1018.1 |
| 20260504044501 | 16 | 55 | 0.0 | 0.0 | 0.00 | 0.00 | 0.00 | 85 | 1018.1 |
| 20260504043959 | 16 | 55 | 0.0 | 0.0 | 0.00 | 0.00 | 0.00 | 85 | 1018.2 |
| 20260504043500 | 16 | 55 | 0.0 | 3.2 | 0.00 | 0.00 | 0.00 | 85 | 1018.2 |
| 20260504042957 | 16 | 55 | 0.0 | 3.2 | 0.00 | 0.00 | 0.00 | 84 | 1018.2 |
| 20260504042457 | 17 | 55 | 0.0 | 3.2 | 0.00 | 0.00 | 0.00 | 84 | 1018.1 |
| 20260504041501 | 17 | 55 | 0.0 | 0.0 | 0.00 | 0.00 | 0.00 | 83 | 1018.1 |
| 20260504040500 | 17 | 55 | 0.0 | 0.0 | 0.00 | 0.00 | 0.00 | 82 | 1018.2 |
| 20260504040006 | 17 | 55 | 0.0 | 0.0 | 0.00 | 0.00 | 0.00 | 82 | 1018.2 |
| 20260504035500 | 17 | 55 | 0.0 | 0.0 | 0.00 | 0.00 | 0.00 | 82 | 1018.2 |
| 20260504034957 | 17 | 55 | 0.0 | 0.0 | 0.00 | 0.00 | 0.00 | 82 | 1018.2 |
| 20260504034500 | 17 | 55 | 0.0 | 0.0 | 0.00 | 0.00 | 0.00 | 81 | 1018.2 |
| 20260504034000 | 17 | 55 | 0.0 | 1.6 | 0.00 | 0.00 | 0.00 | 81 | 1018.1 |
| 20260504033500 | 17 | 55 | 0.0 | 1.6 | 0.00 | 0.00 | 0.00 | 81 | 1018.1 |
| 20260504033002 | 17 | 55 | 0.0 | 0.0 | 0.00 | 0.00 | 0.00 | 81 | 1018.1 |
| 20260504032500 | 17 | 55 | 0.0 | 0.0 | 0.00 | 0.00 | 0.00 | 80 | 1018.1 |
| 20260504032000 | 17 | 55 | 0.0 | 0.0 | 0.00 | 0.00 | 0.00 | 79 | 1018.1 |
| 20260504031504 | 17 | 55 | 0.0 | 0.0 | 0.00 | 0.00 | 0.00 | 79 | 1018.1 |
| 20260504031000 | 17 | 55 | 0.0 | 0.0 | 0.00 | 0.00 | 0.00 | 79 | 1018.0 |
| 20260504030500 | 17 | 55 | 0.0 | 0.0 | 0.00 | 0.00 | 0.00 | 79 | 1018.0 |
| 20260504030007 | 17 | 55 | 0.0 | 0.0 | 0.00 | 0.00 | 0.00 | 78 | 1018.0 |
| 20260504025458 | 17 | 55 | 0.0 | 0.0 | 0.00 | 0.00 | 0.00 | 78 | 1017.8 |
| 20260504025000 | 17 | 55 | 0.0 | 0.0 | 0.00 | 0.00 | 0.00 | 78 | 1017.8 |
| 20260504024502 | 17 | 55 | 0.0 | 1.6 | 0.00 | 0.00 | 0.00 | 78 | 1017.8 |
| 20260504024002 | 17 | 55 | 0.0 | 3.2 | 0.00 | 0.00 | 0.00 | 78 | 1018.1 |
| 20260504023500 | 17 | 55 | 0.0 | 3.2 | 0.00 | 0.00 | 0.00 | 77 | 1018.1 |
| 20260504023001 | 17 | 55 | 0.0 | 0.0 | 0.00 | 0.00 | 0.00 | 78 | 1018.1 |
| 20260504022500 | 17 | 55 | 0.0 | 1.6 | 0.00 | 0.00 | 0.00 | 77 | 1017.8 |
| 20260504022001 | 17 | 55 | 0.0 | 1.6 | 0.00 | 0.00 | 0.00 | 77 | 1017.8 |
| 20260504021504 | 17 | 59 | 0.0 | 1.6 | 0.00 | 0.00 | 0.00 | 76 | 1017.8 |
| 20260504021000 | 17 | 59 | 0.0 | 4.8 | 0.00 | 0.00 | 0.00 | 75 | 1017.7 |
| 20260504020500 | 18 | 57 | 0.0 | 4.8 | 0.00 | 0.00 | 0.00 | 75 | 1017.7 |
| 20260504020005 | 18 | 82 | 0.0 | 3.2 | 0.00 | 0.00 | 0.00 | 74 | 1017.7 |
| 20260504015500 | 18 | 83 | 1.6 | 3.2 | 0.00 | 0.00 | 0.00 | 74 | 1017.5 |
| 20260504015000 | 18 | 55 | 0.0 | 4.8 | 0.00 | 0.00 | 0.00 | 74 | 1017.5 |
| 20260504014500 | 18 | 55 | 0.0 | 4.8 | 0.00 | 0.00 | 0.00 | 73 | 1017.5 |
| 20260504013500 | 18 | 57 | 0.0 | 4.8 | 0.00 | 0.00 | 0.00 | 74 | 1017.1 |
| 20260504013001 | 18 | 57 | 0.0 | 4.8 | 0.00 | 0.00 | 0.00 | 73 | 1017.1 |
| 20260504012458 | 18 | 61 | 0.0 | 4.8 | 0.00 | 0.00 | 0.00 | 72 | 1017.1 |
| 20260504012000 | 18 | 68 | 0.0 | 4.8 | 0.00 | 0.00 | 0.00 | 72 | 1017.1 |
| 20260504011501 | 18 | 67 | 0.0 | 9.7 | 0.00 | 0.00 | 0.00 | 72 | 1017.1 |
| 20260504010459 | 18 | 55 | 1.6 | 4.8 | 0.00 | 0.00 | 0.00 | 71 | 1017.1 |
| 20260504010003 | 18 | 44 | 1.6 | 4.8 | 0.00 | 0.00 | 0.00 | 71 | 1017.1 |
| 20260504005000 | 19 | 56 | 0.0 | 4.8 | 0.00 | 0.05 | 0.00 | 69 | 1016.8 |
| 20260504004501 | 19 | 56 | 1.6 | 4.8 | 0.00 | 0.05 | 0.00 | 69 | 1016.8 |
| 20260504004001 | 19 | 42 | 0.0 | 3.2 | 0.00 | 0.05 | 0.00 | 69 | 1016.6 |
| 20260504003500 | 19 | 32 | 1.6 | 3.2 | 0.00 | 0.05 | 0.00 | 69 | 1016.6 |
| 20260504002500 | 20 | 23 | 0.0 | 1.6 | 0.00 | 0.05 | 0.00 | 67 | 1016.7 |
| 20260504002000 | 20 | 23 | 0.0 | 3.2 | 0.00 | 0.05 | 0.00 | 67 | 1016.7 |
| 20260504001500 | 20 | 23 | 0.0 | 3.2 | 0.00 | 0.05 | 0.00 | 66 | 1016.7 |
| 20260504001000 | 20 | 30 | 0.0 | 6.4 | 0.00 | 0.05 | 0.00 | 65 | 1016.7 |
| 20260504000457 | 21 | 15 | 1.6 | 6.4 | 0.00 | 0.05 | 0.00 | 64 | 1016.7 |
| 20260504000004 | 21 | 30 | 1.6 | 4.8 | 0.00 | 0.05 | 0.00 | 63 | 1016.7 |
| 20260503235500 | 21 | 54 | 0.0 | 4.8 | 0.00 | 0.05 | 0.00 | 61 | 1016.6 |
| 20260503235000 | 21 | 54 | 1.6 | 4.8 | 0.00 | 0.05 | 0.00 | 62 | 1016.6 |
| 20260503234500 | 21 | 65 | 1.6 | 6.4 | 0.00 | 0.05 | 0.00 | 60 | 1016.6 |
| 20260503234002 | 21 | 45 | 1.6 | 6.4 | 0.00 | 0.05 | 0.00 | 60 | 1016.2 |
| 20260503233500 | 22 | 51 | 1.6 | 4.8 | 0.00 | 0.05 | 0.00 | 59 | 1016.2 |
| 20260503233001 | 22 | 59 | 1.6 | 4.8 | 0.00 | 0.05 | 0.00 | 60 | 1016.2 |
| 20260503232457 | 22 | 67 | 3.2 | 4.8 | 0.00 | 0.05 | 0.00 | 58 | 1016.3 |
| 20260503232002 | 22 | 9 | 1.6 | 4.8 | 0.00 | 0.05 | 0.00 | 57 | 1016.3 |
| 20260503231458 | 22 | 17 | 1.6 | 4.8 | 0.00 | 0.05 | 0.00 | 58 | 1016.3 |
| 20260503230502 | 22 | 355 | 1.6 | 6.4 | 0.00 | 0.05 | 0.00 | 57 | 1016.1 |
| 20260503225501 | 23 | 5 | 1.6 | 4.8 | 0.00 | 0.05 | 0.00 | 57 | 1016.1 |
| 20260503225001 | 23 | 9 | 1.6 | 12.9 | 0.00 | 0.05 | 0.00 | 57 | 1016.1 |
| 20260503224500 | 23 | 67 | 3.2 | 12.9 | 0.00 | 0.05 | 0.00 | 57 | 1016.1 |
| 20260503224000 | 23 | 46 | 0.0 | 6.4 | 0.00 | 0.05 | 0.00 | 56 | 1016.1 |
| 20260503223001 | 23 | 63 | 3.2 | 6.4 | 0.00 | 0.05 | 0.00 | 56 | 1016.1 |
| 20260503222501 | 23 | 5 | 1.6 | 6.4 | 0.00 | 0.05 | 0.00 | 55 | 1016.2 |
| 20260503222000 | 23 | 347 | 1.6 | 8.0 | 0.00 | 0.05 | 0.00 | 54 | 1016.2 |
| 20260503221500 | 23 | 9 | 1.6 | 9.7 | 0.00 | 0.05 | 0.00 | 54 | 1016.2 |
| 20260503221001 | 23 | 98 | 4.8 | 19.3 | 0.00 | 0.05 | 0.00 | 53 | 1016.1 |
| 20260503220458 | 23 | 53 | 6.4 | 19.3 | 0.00 | 0.05 | 0.00 | 54 | 1016.1 |
| 20260503220004 | 23 | 22 | 1.6 | 9.7 | 0.00 | 0.05 | 0.00 | 54 | 1016.1 |
| 20260503215000 | 23 | 81 | 1.6 | 9.7 | 0.00 | 0.05 | 0.00 | 56 | 1016.1 |
| 20260503214001 | 24 | 45 | 3.2 | 11.3 | 0.00 | 0.05 | 0.00 | 54 | 1016.1 |
| 20260503213000 | 25 | 348 | 1.6 | 8.0 | 0.00 | 0.05 | 0.00 | 51 | 1016.1 |
| 20260503212501 | 25 | 71 | 3.2 | 14.5 | 0.00 | 0.05 | 0.00 | 53 | 1016.0 |
| 20260503212000 | 24 | 265 | 3.2 | 14.5 | 0.00 | 0.05 | 0.00 | 53 | 1016.0 |
| 20260503211002 | 24 | 26 | 1.6 | 11.3 | 0.00 | 0.05 | 0.00 | 53 | 1016.1 |
| 20260503210500 | 23 | 345 | 3.2 | 11.3 | 0.00 | 0.05 | 0.00 | 55 | 1016.1 |
| 20260503210005 | 23 | 114 | 1.6 | 4.8 | 0.00 | 0.05 | 0.00 | 55 | 1016.1 |
| 20260503205500 | 24 | 162 | 1.6 | 9.7 | 0.00 | 0.05 | 0.00 | 54 | 1016.2 |
| 20260503204957 | 25 | 157 | 1.6 | 9.7 | 0.00 | 0.05 | 0.00 | 52 | 1016.2 |
| 20260503204500 | 25 | 34 | 1.6 | 12.9 | 0.00 | 0.05 | 0.00 | 52 | 1016.2 |
| 20260503204000 | 26 | 93 | 4.8 | 12.9 | 0.00 | 0.05 | 0.00 | 51 | 1016.2 |
| 20260503203500 | 25 | 242 | 1.6 | 8.0 | 0.00 | 0.05 | 0.00 | 53 | 1016.2 |
| 20260503203000 | 25 | 92 | 3.2 | 8.0 | 0.00 | 0.05 | 0.00 | 51 | 1016.2 |
| 20260503202502 | 25 | 55 | 3.2 | 8.0 | 0.00 | 0.05 | 0.00 | 52 | 1016.6 |
| 20260503201957 | 25 | 250 | 1.6 | 4.8 | 0.00 | 0.05 | 0.00 | 52 | 1016.6 |
| 20260503201500 | 25 | 44 | 3.2 | 4.8 | 0.00 | 0.05 | 0.00 | 51 | 1016.6 |
| 20260503201001 | 25 | 177 | 1.6 | 9.7 | 0.00 | 0.05 | 0.00 | 54 | 1016.6 |
| 20260503200500 | 26 | 177 | 1.6 | 11.3 | 0.00 | 0.05 | 0.00 | 50 | 1016.6 |
| 20260503200001 | 26 | 45 | 3.2 | 11.3 | 0.00 | 0.05 | 0.00 | 53 | 1016.6 |
| 20260503195500 | 25 | 338 | 1.6 | 11.3 | 0.00 | 0.20 | 0.00 | 51 | 1016.7 |
| 20260503194957 | 24 | 34 | 4.8 | 11.3 | 0.00 | 0.20 | 0.00 | 53 | 1016.7 |
| 20260503194500 | 24 | 263 | 3.2 | 11.3 | 0.00 | 0.20 | 0.00 | 55 | 1016.7 |
| 20260503193500 | 25 | 157 | 1.6 | 4.8 | 0.00 | 0.20 | 0.00 | 50 | 1017.1 |
| 20260503192500 | 26 | 167 | 3.2 | 11.3 | 0.00 | 0.20 | 0.00 | 51 | 1017.3 |
| 20260503191501 | 25 | 304 | 3.2 | 8.0 | 0.00 | 0.20 | 0.00 | 52 | 1017.3 |
| 20260503190503 | 25 | 45 | 1.6 | 9.7 | 0.00 | 0.20 | 0.00 | 51 | 1017.6 |
| 20260503190004 | 25 | 355 | 4.8 | 11.3 | 0.00 | 0.20 | 0.00 | 52 | 1017.6 |
| 20260503185502 | 25 | 192 | 1.6 | 11.3 | 0.00 | 0.48 | 0.00 | 52 | 1017.8 |
| 20260503185001 | 25 | 92 | 1.6 | 8.0 | 0.00 | 0.48 | 0.00 | 52 | 1017.8 |
| 20260503184500 | 25 | 188 | 1.6 | 6.4 | 0.00 | 0.48 | 0.00 | 54 | 1017.8 |
| 20260503184001 | 25 | 188 | 1.6 | 11.3 | 0.00 | 0.48 | 0.00 | 54 | 1017.9 |
| 20260503183500 | 25 | 340 | 3.2 | 12.9 | 0.00 | 0.48 | 0.00 | 52 | 1017.9 |
| 20260503183001 | 25 | 26 | 4.8 | 12.9 | 0.00 | 0.48 | 0.00 | 55 | 1017.9 |
| 20260503182501 | 25 | 14 | 4.8 | 11.3 | 0.00 | 0.48 | 0.00 | 53 | 1018.0 |
| 20260503181002 | 24 | 59 | 4.8 | 17.7 | 0.00 | 0.48 | 0.00 | 57 | 1018.1 |
| 20260503180500 | 24 | 34 | 4.8 | 17.7 | 0.00 | 0.48 | 0.00 | 57 | 1018.1 |
| 20260503175501 | 24 | 212 | 3.2 | 6.4 | 0.00 | 0.74 | 0.00 | 59 | 1018.5 |
| 20260503175000 | 23 | 185 | 3.2 | 11.3 | 0.00 | 0.74 | 0.00 | 58 | 1018.5 |
| 20260503174501 | 23 | 113 | 3.2 | 11.3 | 0.00 | 0.74 | 0.00 | 60 | 1018.5 |
| 20260503173958 | 23 | 48 | 4.8 | 12.9 | 0.00 | 0.74 | 0.00 | 59 | 1018.6 |
| 20260503173000 | 23 | 238 | 1.6 | 8.0 | 0.00 | 0.74 | 0.00 | 63 | 1018.6 |
| 20260503172501 | 23 | 42 | 3.2 | 8.0 | 0.00 | 0.74 | 0.00 | 59 | 1018.6 |
| 20260503172000 | 23 | 121 | 1.6 | 6.4 | 0.00 | 0.74 | 0.00 | 59 | 1018.6 |
| 20260503171500 | 23 | 91 | 3.2 | 8.0 | 0.00 | 0.74 | 0.00 | 61 | 1018.6 |
| 20260503170957 | 23 | 92 | 3.2 | 12.9 | 0.00 | 0.74 | 0.00 | 62 | 1018.7 |
| 20260503150500 | 20 | 51 | 8.0 | 16.1 | 0.00 | 0.74 | 0.00 | 73 | 1018.7 |